Weather History for Fort Belvoir, VA

Change the Weather History Date:

Monday, May 26, 2014

  Actual Average Record
Temperature  
Mean Temperature 70 °F -  
Max Temperature 88 °F 76 °F 90 °F (2007)
Min Temperature 53 °F 53 °F 43 °F (2013)
Cooling Degree Days 6    
Growing Degree Days 20 (Base 50)    
Moisture  
Dew Point 59 °F    
Average Humidity 74    
Maximum Humidity 100    
Minimum Humidity 32    
Precipitation  
Precipitation 0.00 in - - ()
Sea Level Pressure  
Sea Level Pressure 30.08 in    
Wind  
Wind Speed 1 mph (SSW)    
Max Wind Speed 7 mph    
Max Gust Speed -    
Visibility 10 miles    
Events      
Averages and records for this station are not official NWS values.
T = Trace of Precipitation, MM = Missing Value Source: NWS Daily Summary

Daily Weather History Graph

Daily Weather History Graph

Search for Another Location

Airport:

Trip Planner

Search our weather history database for the weather conditions in past years. The results will help you decide how hot, cold, wet, or windy it might be!

Date:

Astronomy

May. 26, 2014 Rise Set
Actual Time 5:48 AM EDT 8:23 PM EDT
Civil Twilight 5:17 AM EDT 8:54 PM EDT
Nautical Twilight 4:39 AM EDT 9:32 PM EDT
Astronomical Twilight 3:56 AM EDT 10:15 PM EDT
Moon 4:27 AM EDT (5/26) 6:25 PM EDT (5/26)
Length of Visible Light 15h 36m
Length of Day
14h 34m
Waning Crescent, 5% of the Moon is Illuminated
May 26
Waning Crescent
May 28
New
Jun 5
First Quarter
Jun 13
Full
Jun 19
Last Quarter

Hourly Weather History & Observations

Time (EDT) Temp. Heat Index Dew Point Humidity Pressure Visibility Wind Dir Wind Speed Gust Speed Precip Events Conditions
12:58 AM 55.8 °F - 54.1 °F 94% 30.15 in 10.0 mi Calm Calm - N/A   Clear
1:58 AM 55.4 °F - 54.9 °F 98% 30.14 in 10.0 mi Calm Calm - N/A   Clear
2:58 AM 54.7 °F - 54.5 °F 99% 30.14 in 10.0 mi Calm Calm - N/A   Clear
3:58 AM 54.7 °F - 54.3 °F 99% 30.14 in 10.0 mi Calm Calm - N/A   Clear
4:58 AM 54.0 °F - 53.6 °F 99% 30.14 in 10.0 mi Calm Calm - N/A   Clear
5:58 AM 53.8 °F - 53.4 °F 99% 30.14 in 10.0 mi Calm Calm - N/A   Clear
6:58 AM 54.9 °F - 54.9 °F 100% 30.15 in 10.0 mi Calm Calm - N/A   Clear
7:58 AM 64.2 °F - 61.5 °F 91% 30.16 in 10.0 mi Calm Calm - N/A   Clear
8:58 AM 71.1 °F - 58.8 °F 65% 30.16 in 10.0 mi Variable 1.2 mph - N/A   Clear
9:58 AM 75.9 °F - 60.4 °F 59% 30.14 in 10.0 mi Calm Calm - N/A   Clear
10:58 AM 81.1 °F 81.3 °F 58.1 °F 45% 30.13 in 10.0 mi Variable 2.3 mph - N/A   Clear
11:58 AM 83.3 °F 83.2 °F 59.0 °F 44% 30.12 in 10.0 mi Variable 5.8 mph - N/A   Clear
12:58 PM 84.9 °F 84.1 °F 57.4 °F 39% 30.10 in 10.0 mi WSW 3.5 mph - N/A   Clear
2:58 PM 86.0 °F 84.7 °F 55.9 °F 36% 30.05 in 10.0 mi Variable 5.8 mph - N/A   Partly Cloudy
3:58 PM 88.3 °F 86.5 °F 55.0 °F 32% 30.03 in 10.0 mi WSW 6.9 mph - N/A   Clear
4:58 PM 86.9 °F 85.3 °F 55.2 °F 34% 30.02 in 10.0 mi West 5.8 mph - N/A   Clear
5:58 PM 85.8 °F 84.3 °F 55.4 °F 35% 30.00 in 10.0 mi Variable 3.5 mph - N/A   Clear
6:58 PM 80.1 °F 82.1 °F 66.0 °F 62% 30.00 in 10.0 mi South 2.3 mph - N/A   Clear
7:58 PM 75.6 °F - 67.3 °F 75% 30.00 in 10.0 mi ESE 2.3 mph - N/A   Clear
8:58 PM 70.3 °F - 66.9 °F 89% 30.00 in 10.0 mi ESE 1.2 mph - N/A   Clear
9:58 PM 67.3 °F - 66.6 °F 98% 30.01 in 10.0 mi Calm Calm - N/A   Clear
10:58 PM 65.3 °F - 64.9 °F 99% 30.01 in 10.0 mi Calm Calm - N/A   Clear
11:58 PM 64.4 °F - 64.4 °F 100% 30.00 in 10.0 mi Calm Calm - N/A   Clear